Miscellaneous Local Product
Issued by NWS Hastings, NE

Home | Current Version | Previous Version | Graphics & Text | Print | Product List | Glossary On
Versions: 1 2 3 4 5 6 7 8 9 10 11 12 13 14 15 16 17 18 19 20 21 22 23 24 25 26 27 28 29 30 31 32 33 34 35 36 37 38 39 40 41 42 43 44 45 46 47 48 49 50
378
AXUS43 KGID 211402
MISGRI

GID CWA HOURLY WEATHER ROUNDUP
NATIONAL WEATHER SERVICE HASTINGS NE
900 AM CDT THU SEP 21 2017

NOTE: "FAIR" INDICATES FEW OR NO CLOUDS BELOW 12,000 FEET WITH NO
SIGNIFICANT WEATHER AND/OR OBSTRUCTIONS TO VISIBILITY.

...SOUTH CENTRAL NEBRASKA...

CITY           SKY/WX    TMP DP  RH WIND       PRES   REMARKS
GRAND ISLAND   SUNNY     58  55  90 E7        29.82F
HASTINGS       SUNNY     64  58  80 SE9       29.83R
KEARNEY        SUNNY     58  53  84 E5        29.81F
ORD            SUNNY     57  50  77 CALM      29.81S
YORK           SUNNY     66  63  88 SE9       29.83S
AURORA         CLOUDY    61  60  96 SE6       29.82S
LEXINGTON      SUNNY     57  51  80 SE9       29.80S
HOLDREGE       SUNNY     59  55  86 SE6       29.80F
HEBRON         SUNNY     73  69  88 S8        29.82S

...NEBRASKA PANHANDLE...

CITY           SKY/WX    TMP DP  RH WIND       PRES   REMARKS
CHADRON        SUNNY     60  42  51 S15G23    29.69R
ALLIANCE       SUNNY     53  46  77 SE14      29.75S
SCOTTSBLUFF    SUNNY     51  41  68 E12       29.75S
SIDNEY         SUNNY     53  41  63 S10       29.77S

...WESTERN AND NORTH CENTRAL NEBRASKA...

CITY           SKY/WX    TMP DP  RH WIND       PRES   REMARKS
VALENTINE      SUNNY     60  51  72 SE7       29.79S
AINSWORTH      SUNNY     60  52  75 SE15      29.78F
ONEILL         MOSUNNY   62  55  77 SE16      29.82F
BROKEN BOW     SUNNY     56  50  80 SE7       29.80F
IMPERIAL       SUNNY     52  45  77 SE9       29.77F
NORTH PLATTE   CLOUDY    54  50  86 E10       29.79S
MCCOOK         SUNNY     55  50  83 E8        29.78F

...EASTERN NEBRASKA...

CITY           SKY/WX    TMP DP  RH WIND       PRES   REMARKS
NORFOLK        SUNNY     61  57  87 SE9       29.83S
SO SIOUX CITY  PTSUNNY   62  59  90 SE6       29.86F
TEKAMAH        PTSUNNY   66  61  84 SE3       29.85S
COLUMBUS       MOSUNNY   63  58  83 E9        29.84S
ALBION         MOSUNNY   61  57  86 SE6       29.83F
OMAHA EPPLEY   MOSUNNY   72  64  76 SE12      29.86S
OFFUTT AFB     SUNNY     71  65  80 E9        29.86R
MILLARD        MOSUNNY   73  66  80 SE8       29.85F
LINCOLN        MOSUNNY   71  64  78 SE6       29.84S
NEBRASKA CITY  SUNNY     73  73  99 SE9       29.86F
BEATRICE       SUNNY     76  71  85 S9        29.83S
FALLS CITY     PTSUNNY   78  72  81 SE15      29.86R

...NORTHERN KANSAS...

CITY           SKY/WX    TMP DP  RH WIND       PRES   REMARKS
GOODLAND       CLOUDY    59  43  55 S14       29.76F
HILL CITY      SUNNY     60  51  72 CALM      29.80F
NORTON         SUNNY     61  52  72 SE9       29.78F
PHILLIPSBURG   SUNNY     61  54  77 E6        29.79F
SMITH CENTER   SUNNY     64  59  82 SE8       29.81S
HAYS           SUNNY     61  53  75 S7        29.82S
RUSSELL        SUNNY     68  63  84 S12       29.80S
CONCORDIA      SUNNY     74  72  93 S13       29.82R
SALINA         SUNNY     79  71  76 S14G22    29.81S
TOPEKA         SUNNY     79  74  84 SE7       29.88R



USA.gov is the U.S. government's official web portal to all federal, state and local government web resources and services.